Location: Neuvy Saint Sepulchre
(46.5953°N, 1.8122°E)
Time: 13:10:07
(UTC+01:00)

Envisat - Pass Details

Date: 19 October 2021
Orbit: 764 x 766 km, 98.2° (Epoch: 29 November)

Event Time Altitude Azimuth Distance (km) Brightness Sun altitude
Rises 07:42:45 0° 8° (N) 3,244 6.3 -6.4°
Reaches altitude 10° 07:45:08 10° 3° (N) 2,313 5.4 -6.0°
Maximum altitude 07:49:59 46° 291° (WNW) 1,021 3.3 -5.2°
Drops below altitude 10° 07:54:48 10° 219° (SW) 2,297 5.2 -4.4°
Sets 07:57:10 0° 213° (SSW) 3,218 6.0 -4.0°
